FW4301 Weather Reports


time (UTC)temp
C
wind
direction
speed
KPH
gust
KPH
rain 1hr
cm
rain 24hr
cm
rain mn
cm
humidity
%
barometer
mb
20260509174028 33 0 0.0 0.0 0.00 0.00 0.00 38 1010.4
20260509173528 33 0 0.0 0.0 0.00 0.00 0.00 39 1010.6
20260509173049 33 0 0.0 0.0 0.00 0.00 0.00 38 1010.5
20260509172532 32 0 0.0 0.0 0.00 0.00 0.00 39 1010.5
20260509172029 32 0 0.0 0.0 0.00 0.00 0.00 40 1010.6
20260509171549 32 0 0.0 0.0 0.00 0.00 0.00 40 1010.6
20260509171028 32 0 0.0 0.0 0.00 0.00 0.00 38 1010.7
20260509170529 32 0 0.0 0.0 0.00 0.00 0.00 39 1010.7
20260509170051 32 0 0.0 0.0 0.00 0.00 0.00 38 1010.8
20260509165530 32 0 0.0 0.0 0.00 0.00 0.00 39 1010.7
20260509165029 31 0 0.0 0.0 0.00 0.00 0.00 39 1010.9
20260509164545 31 0 0.0 0.0 0.00 0.00 0.00 40 1010.8
20260509164030 31 0 0.0 0.0 0.00 0.00 0.00 43 1010.9
20260509163529 31 0 0.0 0.0 0.00 0.00 0.00 43 1010.9
20260509163044 31 0 0.0 0.0 0.00 0.00 0.00 39 1010.9
20260509162529 30 0 0.0 0.0 0.00 0.00 0.00 45 1010.9
20260509162029 30 0 0.0 0.0 0.00 0.00 0.00 43 1010.9
20260509161550 30 0 0.0 0.0 0.00 0.00 0.00 45 1010.9
20260509161029 30 0 0.0 0.0 0.00 0.00 0.00 45 1010.9
20260509160529 29 0 0.0 0.0 0.00 0.00 0.00 48 1011.0
20260509160040 29 0 0.0 0.0 0.00 0.00 0.00 48 1010.8
20260509155528 29 0 0.0 0.0 0.00 0.00 0.00 49 1010.9
20260509155028 28 0 0.0 0.0 0.00 0.00 0.00 48 1010.9
20260509154546 28 0 0.0 0.0 0.00 0.00 0.00 55 1010.8
20260509154029 28 0 0.0 0.0 0.00 0.00 0.00 55 1010.9
20260509153531 27 0 0.0 0.0 0.00 0.00 0.00 56 1010.7
20260509153054 27 0 0.0 0.0 0.00 0.00 0.00 56 1010.6
20260509152529 27 0 0.0 0.0 0.00 0.00 0.00 57 1010.4
20260509152030 27 0 0.0 0.0 0.00 0.00 0.00 57 1010.3
20260509151556 27 0 0.0 0.0 0.00 0.00 0.00 58 1010.4
20260509151029 26 0 0.0 0.0 0.00 0.00 0.00 59 1010.5
20260509150531 26 0 0.0 0.0 0.00 0.00 0.00 60 1010.6
20260509150040 26 0 0.0 0.0 0.00 0.00 0.00 61 1010.6
20260509145529 25 0 0.0 0.0 0.00 0.00 0.00 62 1010.7
20260509145029 25 0 0.0 0.0 0.00 0.00 0.00 63 1010.8
20260509144539 25 0 0.0 0.0 0.00 0.00 0.00 64 1010.8
20260509144029 25 0 0.0 0.0 0.00 0.00 0.00 65 1010.8
20260509143529 24 0 0.0 0.0 0.00 0.00 0.00 65 1010.9
20260509143057 24 0 0.0 0.0 0.00 0.00 0.00 65 1010.8
20260509142528 23 0 0.0 0.0 0.00 0.00 0.00 65 1010.7
20260509142029 23 0 0.0 0.0 0.00 0.00 0.00 67 1010.7
20260509141544 23 0 0.0 0.0 0.00 0.00 0.00 67 1010.7
20260509141029 23 0 0.0 0.0 0.00 0.00 0.00 69 1010.9
20260509140529 22 0 0.0 0.0 0.00 0.00 0.00 70 1010.8
20260509140046 22 0 0.0 0.0 0.00 0.00 0.00 70 1010.8
20260509135531 22 0 0.0 0.0 0.00 0.00 0.00 71 1010.8
20260509135029 22 0 0.0 0.0 0.00 0.00 0.00 72 1010.8
20260509134540 22 0 0.0 0.0 0.00 0.00 0.00 72 1010.7
20260509134029 21 0 0.0 0.0 0.00 0.00 0.00 73 1010.7
20260509133529 21 0 0.0 0.0 0.00 0.00 0.00 74 1010.6
20260509133057 21 0 0.0 0.0 0.00 0.00 0.00 75 1010.6
20260509132534 20 0 0.0 0.0 0.00 0.00 0.00 75 1010.5
20260509132029 20 0 0.0 0.0 0.00 0.00 0.00 77 1010.6
20260509131539 20 0 0.0 0.0 0.00 0.00 0.00 78 1010.5
20260509131029 20 0 0.0 0.0 0.00 0.00 0.00 78 1010.3
20260509130531 20 0 0.0 0.0 0.00 0.00 0.00 79 1010.1
20260509130048 20 0 0.0 0.0 0.00 0.00 0.00 79 1010.2
20260509125532 20 0 0.0 0.0 0.00 0.00 0.00 79 1010.1
20260509125029 20 0 0.0 0.0 0.00 0.00 0.00 78 1010.1
20260509124542 20 0 0.0 0.0 0.00 0.00 0.00 78 1010.1
20260509124029 20 0 0.0 0.0 0.00 0.00 0.00 78 1010.0
20260509123529 20 0 0.0 0.0 0.00 0.00 0.00 78 1009.8
20260509123041 20 0 0.0 0.0 0.00 0.00 0.00 78 1009.9
20260509122528 20 0 0.0 0.0 0.00 0.00 0.00 78 1010.0
20260509122029 20 0 0.0 0.0 0.00 0.00 0.00 78 1010.2
20260509121546 20 0 0.0 0.0 0.00 0.00 0.00 78 1010.2
20260509121029 20 0 0.0 0.0 0.00 0.00 0.00 78 1010.3
20260509120530 20 0 0.0 0.0 0.00 0.00 0.00 78 1010.3
20260509120040 20 0 0.0 0.0 0.00 0.00 0.00 78 1010.2
20260509115529 20 0 0.0 0.0 0.00 0.00 0.00 78 1010.3
20260509115029 20 0 0.0 0.0 0.00 0.00 0.00 78 1010.2
20260509114539 20 0 0.0 0.0 0.00 0.00 0.00 78 1010.4
20260509114029 20 0 0.0 0.0 0.00 0.00 0.00 78 1010.3
20260509113529 20 0 0.0 0.0 0.00 0.00 0.00 78 1010.3
20260509113046 20 0 0.0 0.0 0.00 0.00 0.00 78 1010.3
20260509112529 21 0 0.0 0.0 0.00 0.00 0.00 78 1010.4
20260509112029 21 0 0.0 0.0 0.00 0.00 0.00 78 1010.3
20260509111543 21 0 0.0 0.0 0.00 0.00 0.00 78 1010.2
20260509111029 21 0 0.0 0.0 0.00 0.00 0.00 78 1010.1
20260509110528 21 0 0.0 0.0 0.00 0.00 0.00 79 1010.0
20260509110045 21 0 0.0 0.0 0.00 0.00 0.00 79 1009.8
20260509105530 21 0 0.0 0.0 0.00 0.00 0.00 79 1009.7
20260509105030 21 0 0.0 0.0 0.00 0.00 0.00 79 1009.8
20260509104559 21 0 0.0 0.0 0.00 0.00 0.00 78 1009.7
20260509104029 20 0 0.0 1.6 0.00 0.00 0.00 78 1009.7
20260509103529 21 0 0.0 4.8 0.00 0.00 0.00 78 1009.1
20260509103042 21 0 0.0 4.8 0.00 0.00 0.00 78 1008.3
20260509102529 21 0 0.0 4.8 0.00 0.00 0.00 78 1008.1
20260509102030 20 0 0.0 4.8 0.00 0.00 0.00 78 1007.9
20260509101547 20 0 0.0 4.8 0.00 0.00 0.00 78 1007.9
20260509101031 20 0 0.0 4.8 0.00 0.00 0.00 78 1007.9
20260509100529 20 0 0.0 4.8 0.00 0.00 0.00 79 1007.8
20260509100043 20 40 0.0 6.4 0.00 0.00 0.00 79 1007.7
20260509095529 20 0 0.0 6.4 0.00 0.00 0.00 79 1007.4
20260509095028 20 40 1.6 6.4 0.00 0.00 0.00 78 1007.3
20260509094542 20 40 0.0 3.2 0.00 0.00 0.00 78 1007.6
20260509094029 20 0 0.0 3.2 0.00 0.00 0.00 78 1007.7
20260509093530 20 0 0.0 4.8 0.00 0.00 0.00 78 1007.7
20260509093042 20 0 0.0 4.8 0.00 0.00 0.00 78 1007.8
20260509092529 20 0 0.0 4.8 0.00 0.00 0.00 78 1007.8
20260509092029 20 0 0.0 6.4 0.00 0.00 0.00 78 1007.9
20260509091544 20 0 0.0 6.4 0.00 0.00 0.00 78 1008.0
20260509091029 20 0 1.6 6.4 0.00 0.00 0.00 78 1008.1
20260509090530 20 40 0.0 4.8 0.00 0.00 0.00 78 1008.2
20260509090054 20 40 0.0 3.2 0.00 0.00 0.00 78 1008.3
20260509085529 20 40 0.0 1.6 0.00 0.00 0.00 78 1008.6
20260509085029 20 0 0.0 1.6 0.00 0.00 0.00 78 1008.7
20260509084545 20 0 0.0 1.6 0.00 0.00 0.00 78 1008.6
20260509084029 20 0 0.0 1.6 0.00 0.00 0.00 78 1008.8
20260509083529 20 0 0.0 4.8 0.00 0.00 0.00 78 1009.1
20260509083040 20 0 0.0 4.8 0.00 0.00 0.00 78 1009.2
20260509082530 20 40 0.0 3.2 0.00 0.00 0.00 78 1009.2
20260509082029 20 0 0.0 0.0 0.00 0.00 0.00 78 1009.8
20260509081550 20 0 0.0 0.0 0.00 0.00 0.00 78 1010.0
20260509081029 20 0 0.0 0.0 0.00 0.00 0.00 78 1010.3
20260509080529 20 0 0.0 0.0 0.00 0.00 0.00 78 1010.6
20260509080040 20 0 0.0 0.0 0.00 0.00 0.00 78 1010.9
20260509075529 20 0 0.0 0.0 0.00 0.00 0.00 78 1011.1
20260509075031 20 0 0.0 0.0 0.00 0.00 0.00 78 1011.7
20260509074550 20 0 0.0 0.0 0.00 0.00 0.00 78 1011.9
20260509074029 20 0 0.0 0.0 0.00 0.00 0.00 78 1011.9
20260509073529 20 0 0.0 0.0 0.00 0.00 0.00 78 1011.8
20260509073048 20 0 0.0 0.0 0.00 0.00 0.00 78 1011.8
20260509072528 20 0 0.0 0.0 0.00 0.00 0.00 78 1011.7
20260509072028 20 0 0.0 0.0 0.00 0.00 0.00 78 1011.7
20260509071551 20 0 0.0 0.0 0.00 0.00 0.00 78 1011.6
20260509071029 20 0 0.0 0.0 0.00 0.00 0.00 78 1011.4
20260509070529 20 0 0.0 0.0 0.00 0.00 0.00 78 1011.4
20260509070049 20 0 0.0 0.0 0.00 0.00 0.00 78 1011.4
20260509065530 20 0 0.0 0.0 0.00 0.00 0.00 77 1011.8
20260509065028 20 0 0.0 0.0 0.00 0.00 0.00 77 1011.9
20260509064539 20 0 0.0 0.0 0.00 0.00 0.00 77 1011.7
20260509064030 20 0 0.0 0.0 0.00 0.00 0.00 77 1011.5
20260509063529 20 0 0.0 0.0 0.00 0.00 0.00 77 1011.4
20260509063103 20 0 0.0 0.0 0.00 0.00 0.00 77 1011.3
20260509062529 20 0 0.0 0.0 0.00 0.00 0.00 76 1011.3
20260509062030 20 0 0.0 0.0 0.00 0.00 0.00 75 1011.2
20260509061609 20 0 0.0 0.0 0.00 0.00 0.00 75 1011.2
20260509061033 20 0 0.0 0.0 0.00 0.00 0.00 75 1010.9
20260509060529 20 0 0.0 0.0 0.00 0.00 0.00 76 1010.9
20260509060055 20 0 0.0 0.0 0.00 0.00 0.00 76 1010.9
20260509055529 20 0 0.0 0.0 0.00 0.00 0.00 76 1010.5
20260509055028 20 0 0.0 0.0 0.00 0.00 0.00 75 1010.4
20260509054543 20 0 0.0 0.0 0.00 0.00 0.00 75 1010.6
20260509054029 20 0 0.0 0.0 0.00 0.00 0.00 75 1010.6
20260509053529 20 0 0.0 0.0 0.00 0.00 0.00 75 1010.6
20260509053044 20 0 0.0 0.0 0.00 0.00 0.00 75 1010.7
20260509052530 20 0 0.0 0.0 0.00 0.00 0.00 75 1010.6
20260509052029 21 0 0.0 0.0 0.00 0.00 0.00 75 1010.6
20260509051545 21 0 0.0 0.0 0.00 0.00 0.00 75 1010.4
20260509051029 21 0 0.0 0.0 0.00 0.00 0.00 75 1010.4
20260509050529 21 0 0.0 0.0 0.00 0.00 0.00 74 1010.6
20260509050049 21 0 0.0 0.0 0.00 0.00 0.00 74 1010.8
20260509045531 21 0 0.0 0.0 0.00 0.00 0.00 74 1011.1
20260509045029 21 0 0.0 0.0 0.00 0.00 0.00 74 1011.0
20260509044543 21 0 0.0 0.0 0.00 0.00 0.00 74 1011.1
20260509044028 21 0 0.0 0.0 0.00 0.00 0.00 74 1010.9
20260509043528 21 0 0.0 0.0 0.00 0.00 0.00 74 1010.9
20260509043049 21 0 0.0 0.0 0.00 0.00 0.00 74 1010.6
20260509042529 21 0 0.0 0.0 0.00 0.00 0.00 74 1010.4
20260509042030 21 0 0.0 0.0 0.00 0.00 0.00 74 1010.3
20260509041546 21 0 0.0 0.0 0.00 0.00 0.00 74 1010.3
20260509041029 21 0 0.0 0.0 0.00 0.00 0.00 74 1010.3
20260509040532 21 0 0.0 0.0 0.00 0.00 0.00 73 1010.4
20260509040048 22 0 0.0 0.0 0.00 0.00 0.00 73 1010.6
20260509035529 22 0 0.0 0.0 0.00 0.00 0.00 72 1010.6
20260509035029 22 0 0.0 0.0 0.00 0.00 0.00 73 1010.6
20260509034546 22 0 0.0 0.0 0.00 0.00 0.00 73 1010.4
20260509034029 22 0 0.0 0.0 0.00 0.00 0.00 73 1010.3
20260509033532 22 0 0.0 0.0 0.00 0.00 0.00 72 1010.2
20260509033046 22 0 0.0 0.0 0.00 0.00 0.00 72 1010.0
20260509032529 22 0 0.0 0.0 0.00 0.00 0.00 72 1010.0
20260509032029 22 0 0.0 0.0 0.00 0.00 0.00 72 1009.9
20260509031542 22 0 0.0 0.0 0.00 0.00 0.00 72 1009.8
20260509031030 22 0 0.0 0.0 0.00 0.00 0.00 72 1009.7
20260509030530 22 0 0.0 0.0 0.00 0.00 0.00 72 1009.7
20260509030051 22 0 0.0 0.0 0.00 0.00 0.00 72 1009.7
20260509025533 22 0 0.0 0.0 0.00 0.00 0.00 72 1009.7
20260509025033 22 0 0.0 0.0 0.00 0.00 0.00 72 1009.8
20260509024545 22 0 0.0 0.0 0.00 0.00 0.00 72 1009.8
20260509024029 22 0 0.0 0.0 0.00 0.00 0.00 72 1009.7
20260509023529 22 0 0.0 0.0 0.00 0.00 0.00 71 1009.6
20260509023044 22 0 0.0 0.0 0.00 0.00 0.00 71 1009.5
20260509022531 22 0 0.0 0.0 0.00 0.00 0.00 71 1009.4
20260509022031 22 0 0.0 0.0 0.00 0.00 0.00 71 1009.3
20260509021546 22 0 0.0 0.0 0.00 0.00 0.00 71 1009.3
20260509021031 22 0 0.0 0.0 0.00 0.00 0.00 71 1009.4
20260509020529 22 0 0.0 0.0 0.00 0.00 0.00 71 1009.4
20260509020054 22 0 0.0 0.0 0.00 0.00 0.00 70 1009.2
20260509015530 22 0 0.0 0.0 0.00 0.00 0.00 70 1009.1
20260509015029 22 0 0.0 0.0 0.00 0.00 0.00 70 1009.0
20260509014549 23 0 0.0 0.0 0.00 0.00 0.00 70 1009.0
20260509014029 23 0 0.0 0.0 0.00 0.00 0.00 70 1009.0
20260509013529 23 0 0.0 0.0 0.00 0.00 0.00 69 1009.0
20260509013050 23 0 0.0 0.0 0.00 0.00 0.00 69 1009.0
20260509012529 23 0 0.0 0.0 0.00 0.00 0.00 69 1008.9
20260509012029 23 0 0.0 0.0 0.00 0.00 0.00 69 1008.9
20260509011544 23 0 0.0 0.0 0.00 0.00 0.00 69 1008.9
20260509011029 23 0 0.0 0.0 0.00 0.00 0.00 68 1008.8
20260509010530 23 0 0.0 0.0 0.00 0.00 0.00 68 1008.7
20260509010040 23 0 0.0 0.0 0.00 0.00 0.00 68 1008.5
20260509005529 23 0 0.0 0.0 0.00 0.00 0.00 68 1008.5
20260509005030 23 0 0.0 0.0 0.00 0.00 0.00 68 1008.4
20260509004540 23 0 0.0 0.0 0.00 0.00 0.00 68 1008.4
20260509004029 23 0 0.0 0.0 0.00 0.00 0.00 67 1008.6
20260509003531 23 0 0.0 0.0 0.00 0.00 0.00 67 1008.6
20260509003043 23 0 0.0 0.0 0.00 0.00 0.00 67 1008.6
20260509002529 23 0 0.0 0.0 0.00 0.00 0.00 66 1008.6
20260509002029 24 0 0.0 0.0 0.00 0.00 0.00 66 1008.6
20260509001547 24 0 0.0 0.0 0.00 0.00 0.00 66 1008.4
20260509001030 24 0 0.0 0.0 0.00 0.00 0.00 66 1008.4
20260509000529 24 0 0.0 0.0 0.00 0.00 0.00 65 1008.4
20260509000043 24 0 0.0 1.6 0.00 0.00 0.00 65 1008.4
20260508235529 24 0 0.0 1.6 0.00 0.00 0.00 65 1008.4
20260508235029 24 0 0.0 0.0 0.00 0.00 0.00 65 1008.3
20260508234544 24 0 0.0 1.6 0.00 0.00 0.00 65 1008.3
20260508234032 24 0 0.0 1.6 0.00 0.00 0.00 65 1008.4
20260508233529 24 0 0.0 1.6 0.00 0.00 0.00 65 1008.3
20260508233051 25 0 0.0 1.6 0.00 0.00 0.00 65 1008.4
20260508232530 25 0 0.0 1.6 0.00 0.00 0.00 65 1008.4
20260508232029 25 0 0.0 1.6 0.00 0.00 0.00 64 1008.4
20260508231547 25 0 0.0 0.0 0.00 0.00 0.00 65 1008.4
20260508231030 25 0 0.0 1.6 0.00 0.00 0.00 65 1008.4
20260508230529 25 0 0.0 1.6 0.00 0.00 0.00 65 1008.4
20260508230046 25 0 0.0 1.6 0.00 0.00 0.00 65 1008.4
20260508225529 24 0 0.0 1.6 0.00 0.00 0.00 65 1008.5
20260508225029 24 0 0.0 1.6 0.00 0.00 0.00 65 1008.6
20260508224546 24 0 0.0 3.2 0.00 0.00 0.00 65 1008.6
20260508224029 24 0 0.0 3.2 0.00 0.00 0.00 65 1008.6
20260508223529 24 40 0.0 3.2 0.00 0.00 0.00 64 1008.6
20260508223043 24 0 0.0 3.2 0.00 0.00 0.00 64 1008.8
20260508222528 24 0 0.0 3.2 0.00 0.00 0.00 65 1008.9
20260508222029 24 0 0.0 1.6 0.00 0.00 0.00 65 1008.9
20260508221543 24 0 0.0 0.0 0.00 0.00 0.00 65 1009.0
20260508221030 24 0 0.0 0.0 0.00 0.00 0.00 65 1009.2
20260508220530 23 0 0.0 1.6 0.00 0.00 0.00 65 1009.3
20260508220046 23 0 0.0 1.6 0.00 0.00 0.00 65 1009.4
20260508215529 23 0 0.0 0.0 0.00 0.00 0.00 65 1009.4
20260508215029 23 0 0.0 1.6 0.00 0.00 0.00 64 1009.5
20260508214546 23 0 0.0 1.6 0.00 0.00 0.00 64 1009.6
20260508214030 23 0 0.0 0.0 0.00 0.00 0.00 65 1009.6
20260508213529 23 0 0.0 6.4 0.00 0.00 0.00 64 1009.6
20260508213045 23 0 0.0 6.4 0.00 0.00 0.00 64 1009.6
20260508212528 23 0 0.0 6.4 0.00 0.00 0.00 65 1009.3
20260508212028 23 0 0.0 6.4 0.00 0.00 0.00 66 1009.2
20260508211545 23 40 0.0 3.2 0.00 0.00 0.00 65 1009.2
20260508211029 22 0 0.0 3.2 0.00 0.00 0.00 66 1009.4
20260508210526 22 0 0.0 3.2 0.00 0.00 0.00 67 1009.4
20260508210048 22 0 0.0 4.8 0.00 0.00 0.00 66 1009.5
20260508205529 22 0 0.0 4.8 0.00 0.00 0.00 67 1009.6
20260508205029 21 0 0.0 4.8 0.00 0.00 0.00 67 1009.8
20260508204550 21 0 0.0 0.0 0.00 0.00 0.00 67 1009.8
20260508204028 21 0 0.0 1.6 0.00 0.00 0.00 68 1010.0
20260508203528 21 0 0.0 1.6 0.00 0.00 0.00 67 1010.2
20260508203048 21 0 0.0 3.2 0.00 0.00 0.00 66 1010.6
20260508202527 21 0 0.0 3.2 0.00 0.00 0.00 66 1010.9
20260508202029 21 0 0.0 0.0 0.00 0.00 0.00 65 1011.0
20260508201557 21 0 0.0 0.0 0.00 0.00 0.00 65 1011.3
20260508201029 21 0 0.0 0.0 0.00 0.00 0.00 64 1011.4
20260508200529 21 0 0.0 0.0 0.00 0.00 0.00 64 1011.4
20260508200042 21 0 0.0 1.6 0.00 0.00 0.00 64 1011.5
20260508195528 21 0 0.0 1.6 0.00 0.00 0.00 63 1011.4
20260508195029 21 0 0.0 1.6 0.00 0.00 0.00 62 1011.5
20260508194541 22 0 0.0 1.6 0.00 0.00 0.00 61 1011.5
20260508194028 22 0 0.0 0.0 0.00 0.00 0.00 62 1011.5
20260508193528 21 0 0.0 1.6 0.00 0.00 0.00 66 1011.1
20260508193040 21 0 0.0 1.6 0.00 0.00 0.00 64 1011.0
20260508192529 21 0 0.0 1.6 0.00 0.00 0.00 64 1011.0
20260508192028 21 0 0.0 3.2 0.00 0.00 0.00 64 1011.2
20260508191540 21 0 0.0 3.2 0.00 0.00 0.00 64 1011.2
20260508191025 21 0 0.0 3.2 0.00 0.00 0.00 63 1011.3
20260508190530 21 40 0.0 4.8 0.00 0.00 0.00 62 1011.3
20260508190047 21 0 0.0 4.8 0.00 0.00 0.00 62 1011.5
20260508185529 21 0 0.0 1.6 0.00 0.00 0.00 62 1011.7
20260508185029 21 0 0.0 1.6 0.00 0.00 0.00 63 1011.6
20260508184545 21 0 0.0 3.2 0.00 0.00 0.00 63 1011.7
20260508184028 21 0 0.0 3.2 0.00 0.00 0.00 63 1011.7
20260508183528 21 0 0.0 3.2 0.00 0.00 0.00 63 1011.9
20260508183040 21 0 0.0 1.6 0.00 0.00 0.00 64 1012.1
20260508182529 21 0 0.0 1.6 0.00 0.00 0.00 63 1012.1
20260508182028 21 0 0.0 1.6 0.00 0.00 0.00 63 1012.2
20260508181553 21 0 0.0 4.8 0.00 0.00 0.00 62 1012.4
20260508181031 21 0 0.0 4.8 0.00 0.00 0.00 62 1012.6
20260508180529 21 0 0.0 1.6 0.00 0.00 0.00 62 1012.7
20260508180047 21 0 0.0 1.6 0.00 0.00 0.00 61 1012.7
20260508175529 21 0 0.0 3.2 0.00 0.00 0.00 60 1012.5
20260508175030 22 0 0.0 3.2 0.00 0.00 0.00 58 1012.6
20260508174554 22 0 0.0 4.8 0.00 0.00 0.00 59 1012.6